Startseite
Über Mich
AHP4
Galerie
Sehschlangen
Tourenbuch
Bookmarks
Elektronik
Bewertung
Geschichten
[Tagesmessung] [Jahreswerte] [Information]

Messwerte vom 28.06.2022

Die letzten Messwerte von 23:58:49 Uhr:
KategorieMesswert
Temperatur [°C]15
Luftdruck [mBar]1003
Sonneneinstrahlung0
Wind [km/h]0 aus Nordost
Niederschlag [l/m²]0
rel.Luftfeucht.72%
CO2 [ppm]727

Diagramme
Messwerte vom 28.06.2022
Tagesaggregation
KategorieMinimumMaximumSchnittSumme
Temperatur [°C]153421.0354
Luftdruck [mBar]100210071004.4896
Sonneneinstrahlung248141.9104
Wind [km/h]16
rF [%]22.396.664.44
Niederschlag [l/m²]0
CO2 [ppm]407853648.3
Einordnung alsVegetationstag
Sommertag
Heißer Tag

Messungen an benachbarten Tagen: Zur Jahresaggregation 2022
Tabelle aller Messwerte
UhrzeitTemperatur [°C]Luftdruck [mBar]SonneWind [km/h]RichtungRegen [l/m²]rF [%]CO2 [ppm]
00:01:47 16 1002 0 0 SO 0 94.4 753
00:04:49 16 1002 0 0 SO 0 94.5 749
00:07:48 16 1002 0 0 SO 0 94.4 753
00:10:48 16 1002 0 0 SO 0 94.3 759
00:13:47 16 1002 0 0 W 0 94.6 755
00:16:47 16 1002 0 0 W 0 94.7 746
00:19:48 16 1002 0 0 W 0 95 743
00:22:48 16 1002 0 0 W 0 95.1 743
00:25:47 17 1002 0 0 W 0 95.2 747
00:28:46 17 1002 0 0 W 0 95.1 746
00:31:46 17 1002 0 0 O 0 95.1 747
00:34:47 17 1002 0 0 W 0 95.2 750
00:37:49 17 1002 0 0 NW 0 95 752
00:40:51 17 1002 0 1 SW 0 95.2 753
00:43:49 17 1002 0 0 SW 0 95.4 749
00:46:47 17 1002 0 0 SO 0 95.4 752
00:49:48 17 1002 0 0 SW 0 95.3 758
00:52:52 17 1002 0 0 SW 0 95.2 762
00:55:48 17 1002 0 0 SW 0 95.1 759
00:58:47 17 1002 0 0 NO 0 95.2 758
01:01:46 17 1003 0 0 0 95.4 760
01:04:46 17 1002 0 0 O 0 95.5 767
01:07:49 17 1003 0 0 SW 0 95.6 774
01:10:49 17 1003 0 1 NW 0 95.8 770
01:13:47 17 1003 0 0 N 0 96.1 769
01:16:47 17 1003 0 0 N 0 96.3 771
01:19:45 17 1003 0 0 O 0 96.5 772
01:22:49 17 1003 0 0 SO 0 96.5 780
01:25:47 16 1003 0 0 NW 0 96.6 768
01:28:47 16 1002 0 0 SO 0 96.6 773
01:31:47 16 1003 0 1 W 0 96.6 770
01:34:46 16 1002 0 0 W 0 96.6 770
01:37:46 16 1002 0 0 W 0 96.6 776
01:40:47 16 1003 0 0 S 0 96.6 773
01:43:45 16 1002 0 0 W 0 96.6 773
01:46:47 16 1003 0 0 W 0 96.6 776
01:49:47 16 1003 0 0 W 0 96.6 771
01:52:45 16 1003 0 0 W 0 96.6 774
01:55:49 16 1003 0 1 SW 0 96.6 771
01:58:48 16 1002 0 0 SO 0 96.6 785
02:01:50 16 1003 0 0 SO 0 96.6 788
02:04:47 16 1003 0 1 W 0 96.6 785
02:07:49 16 1003 0 0 SW 0 96.6 783
02:10:52 16 1002 0 0 SO 0 96.6 787
02:13:50 16 1004 0 3 SO 0 96.6 790
02:16:46 16 1004 0 0 S 0 96.6 793
02:19:48 16 1003 0 2 SW 0 96.6 793
02:22:48 16 1003 0 0 NW 0 96.6 790
02:25:46 16 1003 0 0 O 0 96.6 790
02:28:48 16 1004 0 0 S 0 96.6 791
02:31:46 16 1003 0 0 S 0 96.6 794
02:34:50 16 1003 0 2 SW 0 96.6 803
02:37:48 16 1004 0 1 NW 0 96.6 800
02:40:50 16 1004 0 0 NW 0 96.6 801
02:43:47 16 1005 0 0 S 0 96.6 793
02:46:49 16 1004 0 1 SW 0 96.6 788
02:49:47 16 1004 0 0 S 0 96.6 778
02:52:49 16 1005 0 0 S 0 96.6 780
02:55:50 17 1005 0 0 NO 0 96.6 789
02:58:48 17 1004 0 0 NO 0 96.6 790
03:01:51 17 1004 0 0 NW 0 96.6 798
03:04:48 17 1004 0 5 W 0 96.6 791
03:07:50 16 1004 0 0 SW 0 96.4 795
03:10:47 16 1004 0 0 S 0 96.4 788
03:13:48 16 1004 0 0 SW 0 96.6 799
03:16:47 16 1004 0 0 SW 0 96.6 797
03:19:49 16 1003 0 0 SW 0 96.6 801
03:22:47 16 1004 0 0 SW 0 96.6 794
03:25:47 17 1004 0 0 W 0 96.6 793
03:28:47 17 1004 0 0 S 0 96.6 803
03:31:47 17 1004 0 0 S 0 96.6 808
03:34:46 17 1004 0 0 W 0 96.6 808
03:37:50 17 1004 0 2 SO 0 96.4 815
03:40:48 17 1004 0 5 O 0 96.1 811
03:43:48 17 1004 0 11 W 0 96 813
03:46:50 17 1004 0 2 NW 0 95.4 817
03:49:48 17 1003 0 4 O 0 95.3 819
03:52:45 17 1004 0 2 S 0 95.1 818
03:55:47 17 1004 0 1 SW 0 94.8 823
03:58:46 17 1003 0 3 SW 0 94.6 823
04:01:50 17 1003 0 1 SO 0 94.3 824
04:04:49 17 1004 0 3 SW 0 94.2 825
04:07:46 17 1003 0 1 S 0 94.2 819
04:10:48 17 1004 0 2 W 0 94.2 813
04:13:47 17 1003 0 1 SW 0 94 813
04:16:49 17 1004 0 2 SO 0 94 815
04:19:47 16 1004 0 1 NO 0 94 823
04:22:46 16 1004 0 1 SO 0 94 821
04:25:50 16 1003 0 0 S 0 94 826
04:28:47 16 1003 0 3 SW 0 94 825
04:31:48 16 1004 0 1 NW 0 93.9 823
04:34:48 16 1004 4 0 SW 0 94 828
04:37:48 16 1004 9 2 S 0 94.1 824
04:40:46 16 1004 13 0 S 0 94.2 831
04:43:47 16 1004 17 1 SW 0 93.7 825
04:46:48 16 1004 20 0 W 0 93.5 829
04:49:46 16 1004 27 1 S 0 93.5 833
04:52:46 16 1004 33 1 W 0 93.7 833
04:55:46 16 1004 38 1 S 0 93.7 827
04:58:48 16 1004 53 2 SO 0 93.8 824
05:01:48 16 1004 59 7 SO 0 94 831
05:04:49 16 1004 51 2 W 0 94.1 830
05:07:48 16 1004 43 0 SW 0 94.4 829
05:10:47 16 1004 46 10 S 0 94.9 838
05:13:48 16 1004 53 1 SO 0 95 832
05:16:51 16 1004 67 0 NW 0 94.6 835
05:19:48 16 1005 82 3 S 0 94.6 829
05:22:50 16 1004 80 2 SW 0 94 828
05:25:48 16 1004 73 2 SO 0 93.7 825
05:28:47 16 1005 79 2 S 0 93.7 835
05:31:47 16 1004 85 1 S 0 93.5 835
05:34:48 16 1005 96 1 SO 0 93.3 836
05:37:48 16 1005 92 0 W 0 93 835
05:40:49 16 1005 95 0 SO 0 92.8 840
05:43:49 16 1005 96 2 S 0 92.7 843
05:46:50 16 1005 94 0 SW 0 92.6 837
05:49:51 16 1005 95 0 SO 0 92.6 832
05:52:48 16 1004 100 0 SW 0 92.6 837
05:55:49 16 1005 89 0 NW 0 92.5 834
05:58:48 16 1005 99 2 S 0 92.7 835
06:01:47 16 1006 94 1 S 0 93 831
06:04:49 16 1005 112 3 NO 0 92.7 833
06:07:51 16 1005 116 3 W 0 92.6 832
06:10:50 16 1005 120 0 SO 0 92.5 829
06:13:47 16 1006 111 0 SW 0 92.6 826
06:16:48 16 1005 116 1 W 0 92.7 823
06:19:51 16 1005 130 7 NW 0 92.8 831
06:22:51 16 1006 154 1 NW 0 92.9 825
06:25:51 16 1006 132 0 NW 0 92.8 826
06:28:48 16 1006 139 2 W 0 92.7 823
06:31:48 16 1006 133 0 W 0 92.7 827
06:34:48 16 1006 138 4 O 0 92.5 831
06:37:48 16 1006 133 1 W 0 92.1 837
06:40:49 16 1006 136 1 W 0 91.9 846
06:43:52 16 1005 139 3 SW 0 91.7 838
06:46:48 16 1006 161 0 SW 0 91.8 834
06:49:48 16 1005 158 1 SW 0 91.8 834
06:52:47 16 1006 167 0 S 0 91.7 840
06:55:46 16 1005 159 1 S 0 91.6 713
06:58:48 16 1006 153 0 SO 0 91.2 553
07:01:49 16 1006 150 0 NW 0 91.4 477
07:04:47 16 1005 172 0 W 0 91.5 451
07:07:48 16 1005 183 2 NO 0 91.5 442
07:10:46 16 1006 171 3 N 0 91.1 436
07:13:48 16 1006 173 2 SW 0 91.4 424
07:16:48 16 1005 126 1 S 0 91.2 430
07:19:47 16 1005 122 3 O 0 91.2 444
07:22:49 16 1006 177 4 NW 0 90.6 442
07:25:48 16 1006 171 0 W 0 90.6 438
07:28:47 16 1006 180 0 N 0 90.6 437
07:31:50 16 1006 183 0 SO 0 90.3 433
07:34:49 16 1006 188 1 SW 0 90.2 453
07:37:48 16 1006 193 2 N 0 90.1 450
07:40:48 16 1006 197 1 N 0 90.1 444
07:43:51 16 1005 192 3 SO 0 90.1 448
07:46:46 16 1005 182 1 SO 0 90.1 445
07:49:49 17 1006 178 0 O 0 89.3 457
07:52:49 16 1006 206 5 W 0 89 460
07:55:48 17 1006 206 0 S 0 89 466
07:58:50 17 1005 213 1 W 0 89.8 469
08:01:49 17 1006 217 0 O 0 89.8 468
08:04:52 17 1006 215 1 O 0 89.3 466
08:07:49 18 1005 210 1 W 0 88 465
08:10:48 18 1006 208 0 N 0 87.1 471
08:13:52 18 1006 209 4 NW 0 85.1 466
08:16:48 18 1005 213 1 SO 0 84.3 439
08:19:49 19 1006 212 0 NW 0 84.7 442
08:22:49 19 1006 213 2 SO 0 84.3 442
08:25:49 19 1006 209 1 N 0 83.3 444
08:28:53 19 1006 209 0 NW 0 83.2 439
08:31:47 19 1006 214 0 O 0 83.4 433
08:34:49 19 1006 214 0 W 0 83.1 434
08:37:49 18 1006 215 0 N 0 82.6 433
08:40:51 18 1006 216 0 N 0 82.3 439
08:43:49 19 1006 213 0 SO 0 82.4 434
08:46:49 19 1006 216 1 SW 0 82.5 433
08:49:49 19 1006 212 4 W 0 81.4 433
08:52:47 18 1006 205 3 W 0 81.3 433
08:55:50 18 1006 202 2 NW 0 81.5 433
08:58:49 18 1006 197 3 NW 0 81.1 436
09:01:49 17 1006 200 1 NW 0 81.4 435
09:04:48 17 1006 204 3 W 0 81.8 434
09:07:49 17 1006 212 2 W 0 83.7 425
09:10:50 17 1006 216 3 W 0 84.1 431
09:13:50 17 1006 214 0 SW 0 84 431
09:16:47 17 1006 218 2 NW 0 83.8 433
09:19:50 18 1006 218 4 NW 0 83.2 431
09:22:51 18 1006 216 4 NW 0 80.7 433
09:25:49 18 1006 218 4 NW 0 79.9 431
09:28:51 18 1006 218 1 SO 0 80.3 428
09:31:50 18 1006 218 4 NW 0 80.8 428
09:34:47 18 1006 207 1 N 0 81.2 433
09:37:47 18 1006 207 2 O 0 79.8 424
09:40:51 18 1006 216 4 NW 0 79.8 431
09:43:50 18 1006 221 4 NW 0 80.8 428
09:46:51 18 1006 219 6 NW 0 80.2 424
09:49:49 18 1006 216 2 W 0 76.4 422
09:52:49 18 1006 208 1 NW 0 78.2 427
09:55:49 18 1006 210 3 W 0 79.4 424
09:58:50 19 1006 201 1 W 0 79 422
10:01:47 19 1007 199 3 W 0 79.5 418
10:04:48 18 1007 199 4 NW 0 77 418
10:07:48 18 1006 204 9 NW 0 76.4 418
10:10:51 18 1006 207 16 NW 0 76.2 422
10:13:47 18 1007 214 3 SO 0 76.6 427
10:16:49 18 1006 217 11 NW 0 76.7 422
10:19:48 18 1006 212 4 S 0 76.5 419
10:22:48 19 1006 200 2 NO 0 76.2 418
10:25:48 19 1006 206 2 SW 0 75.5 418
10:28:49 19 1006 211 1 SW 0 74.9 424
10:31:48 19 1006 213 1 NW 0 73.2 430
10:34:50 19 1006 212 0 NW 0 71.8 430
10:37:49 19 1006 196 5 NW 0 72.5 419
10:40:49 19 1006 201 4 NW 0 72.3 416
10:43:51 19 1006 215 2 NW 0 71.9 416
10:46:47 19 1006 216 4 NW 0 71.8 412
10:49:49 19 1006 213 0 S 0 70.8 407
10:52:50 20 1006 205 1 SO 0 68.8 416
10:55:48 20 1006 212 3 NW 0 68.9 416
10:58:48 20 1006 212 3 S 0 68.9 419
11:01:51 20 1006 206 4 NW 0 68.3 419
11:04:49 20 1006 207 2 W 0 67.9 418
11:07:46 20 1006 208 6 S 0 67.4 420
11:10:49 20 1006 205 6 NW 0 65.7 419
11:13:50 20 1006 204 2 S 0 66 415
11:16:49 20 1007 206 2 SW 0 64.3 416
11:19:50 21 1006 209 6 SW 0 61.8 419
11:22:48 21 1006 214 7 S 0 60.2 412
11:25:47 21 1006 219 1 W 0 63 412
11:28:47 21 1006 212 2 N 0 61.9 413
11:31:53 21 1006 210 15 N 0 59.2 413
11:34:46 20 1006 213 7 N 0 57.9 413
11:37:49 20 1006 210 4 NW 0 58.8 422
11:40:50 21 1006 205 8 NW 0 60 419
11:43:51 21 1006 202 5 NW 0 56.9 424
11:46:49 21 1006 202 4 NW 0 56.1 424
11:49:48 22 1006 204 1 NW 0 56.5 421
11:52:49 22 1006 204 2 W 0 54 415
11:55:48 22 1006 205 4 NW 0 53.9 415
11:58:32 21 1007 206 5 NW 0 46.9 415
12:01:48 23 1006 208 6 S 0 51.4 416
12:04:46 23 1006 207 2 S 0 51.6 419
12:07:50 24 1006 207 3 SO 0 49.7 419
12:10:49 25 1006 213 2 SO 0 46.2 418
12:13:47 25 1006 212 1 SW 0 45.4 416
12:16:48 26 1006 214 2 SW 0 43.3 415
12:19:49 26 1006 219 5 W 0 45.8 410
12:22:49 26 1006 220 5 NW 0 45.6 410
12:25:50 25 1006 216 5 S 0 43.3 419
12:28:49 24 1006 216 1 NW 0 46.6 421
12:31:50 25 1006 217 1 SO 0 49 421
12:34:48 26 1006 218 0 SW 0 44.4 416
12:37:49 26 1006 215 4 NW 0 43.9 413
12:40:50 25 1006 220 0 NW 0 43 413
12:43:46 25 1006 218 4 N 0 42.5 413
12:46:31 24 1006 217 0 N 0 40 413
12:49:52 27 1006 214 3 SO 0 41.8 410
12:52:46 27 1006 213 3 W 0 41.6 413
12:55:47 28 1006 213 0 N 0 42.1 415
12:58:48 28 1006 214 0 W 0 41.9 409
13:01:50 28 1006 216 0 SW 0 39.5 407
13:04:48 27 1006 217 12 0 38.6 416
13:07:48 26 1006 217 4 W 0 38.1 413
13:10:49 26 1006 219 4 W 0 45 415
13:13:50 27 1006 220 3 W 0 42.5 410
13:16:50 27 1006 222 12 NW 0 37.9 414
13:19:48 26 1006 224 4 NW 0 37.7 413
13:22:47 26 1006 224 7 N 0 38.7 411
13:25:49 26 1006 218 6 NW 0 41.5 410
13:28:48 24 1006 216 6 NO 0 41.7 407
13:31:48 23 1006 219 3 NO 0 43.4 407
13:34:50 23 1006 220 2 SO 0 46.7 410
13:37:50 25 1006 222 0 SW 0 46.8 421
13:40:48 25 1006 224 5 S 0 42.7 430
13:43:51 26 1006 226 4 SO 0 43.4 434
13:46:48 27 1006 227 2 O 0 40.1 442
13:49:49 27 1006 229 6 N 0 38.7 456
13:52:49 26 1006 230 2 N 0 40.5 466
13:55:51 26 1006 229 2 SW 0 41.2 478
13:58:50 27 1006 230 7 NO 0 38.6 486
14:01:50 27 1006 230 1 W 0 42.1 492
14:04:49 27 1006 231 8 W 0 38.2 492
14:07:49 27 1006 232 3 SO 0 37.6 495
14:10:48 27 1006 233 1 SW 0 37 513
14:13:51 27 1006 233 5 NW 0 37.1 515
14:16:47 28 1006 235 2 S 0 36.3 516
14:19:49 29 1005 238 5 SW 0 32.9 509
14:22:47 29 1006 239 2 S 0 32.8 513
14:25:49 30 1006 239 3 S 0 30.5 516
14:28:49 30 1006 240 3 SO 0 30.6 525
14:31:48 29 1006 241 3 SO 0 32.5 530
14:34:48 29 1006 241 1 SO 0 33.5 531
14:37:49 29 1006 241 9 NW 0 33.1 533
14:40:49 30 1006 241 2 S 0 33.3 538
14:43:50 30 1006 242 5 NW 0 32.6 545
14:46:49 30 1006 242 2 SO 0 32.1 557
14:49:50 30 1006 243 3 SW 0 29.4 565
14:52:47 30 1006 243 3 S 0 31 573
14:55:49 30 1006 243 4 S 0 31.2 574
14:58:49 30 1006 243 5 NW 0 29.6 573
15:01:49 30 1006 244 2 SO 0 29.7 577
15:04:49 31 1006 241 1 NW 0 30.6 585
15:07:49 30 1006 228 2 S 0 31.4 590
15:10:51 29 1006 245 2 SO 0 32.8 591
15:13:47 29 1006 235 0 SO 0 32.9 594
15:16:49 29 1005 245 3 NW 0 31.5 609
15:19:49 28 1006 227 4 N 0 33.4 618
15:22:49 27 1006 243 5 NO 0 34.1 624
15:25:51 26 1005 231 1 SO 0 36.3 616
15:28:49 24 1005 235 4 O 0 38.6 624
15:31:49 24 1005 246 12 N 0 40 621
15:34:48 25 1005 245 5 N 0 40 624
15:37:49 26 1006 246 0 N 0 38.9 632
15:40:50 26 1005 246 4 NW 0 37.9 644
15:43:50 27 1005 246 7 NW 0 35.9 638
15:46:48 26 1005 246 3 S 0 35.5 642
15:49:50 27 1005 246 1 NW 0 36 648
15:52:50 27 1005 246 6 NW 0 33.3 651
15:55:47 27 1005 246 5 N 0 33.7 648
15:58:47 28 1005 246 2 N 0 35.1 644
16:01:46 28 1005 246 6 N 0 34.4 644
16:04:31 26 1005 246 10 N 0 40 644
16:07:47 28 1005 246 7 N 0 30.2 649
16:10:49 27 1005 246 5 N 0 32 656
16:13:50 27 1005 246 3 NW 0 31.1 659
16:16:48 28 1005 247 2 S 0 31.6 657
16:19:50 30 1005 246 3 SO 0 31.5 656
16:22:48 30 1005 247 2 S 0 30.9 663
16:25:49 31 1004 247 6 S 0 30 668
16:28:45 31 1005 247 3 0 29.6 671
16:31:49 32 1005 247 3 SO 0 26.7 670
16:34:48 32 1005 247 3 SO 0 26.9 685
16:37:51 32 1005 247 1 SO 0 26.9 688
16:40:48 32 1005 247 0 S 0 26.6 688
16:43:47 32 1005 247 4 S 0 27.3 693
16:46:48 32 1005 247 0 SW 0 27.8 699
16:49:49 31 1004 247 11 NW 0 27.6 699
16:52:50 31 1005 247 4 SW 0 28.1 691
16:55:48 31 1005 247 2 NW 0 28.7 692
16:58:48 31 1005 247 1 NW 0 27.7 691
17:01:47 32 1004 247 7 SO 0 27.1 703
17:04:47 32 1005 247 3 SW 0 26.5 708
17:07:48 32 1005 247 6 W 0 26 719
17:10:46 32 1004 248 1 S 0 26.1 714
17:13:48 32 1005 247 1 SW 0 27 720
17:16:47 32 1004 247 0 SW 0 25.7 729
17:19:49 32 1005 247 5 W 0 27.4 733
17:22:48 32 1004 239 0 O 0 26.8 735
17:25:50 32 1005 247 1 SO 0 27.2 728
17:28:47 32 1004 247 3 W 0 25.8 739
17:31:48 32 1005 247 4 SO 0 24.8 743
17:34:49 32 1005 247 1 SW 0 23 741
17:37:48 33 1004 247 2 SO 0 23.1 743
17:40:49 33 1004 247 2 NW 0 23.7 750
17:43:49 33 1004 247 0 SW 0 22.7 756
17:46:49 33 1004 248 5 W 0 23.5 762
17:49:49 34 1004 248 0 SW 0 22.6 768
17:52:47 34 1004 247 2 O 0 23.5 773
17:55:49 34 1004 247 1 S 0 22.7 778
17:58:48 34 1004 247 4 SW 0 22.3 773
18:01:50 33 1004 247 2 SO 0 22.3 780
18:04:52 33 1004 247 3 NW 0 22.6 790
18:07:48 33 1003 247 3 SO 0 23.4 795
18:10:49 33 1003 247 3 SO 0 22.7 794
18:13:49 33 1004 247 0 O 0 22.9 791
18:16:51 33 1003 247 2 S 0 23.5 789
18:19:50 33 1004 247 1 SO 0 23.9 795
18:22:47 32 1004 247 3 N 0 23.4 805
18:25:49 31 1003 247 2 S 0 24.1 803
18:28:49 31 1003 247 2 SO 0 25.3 804
18:31:49 32 1004 247 1 W 0 25.1 799
18:34:47 32 1003 247 7 N 0 23.9 805
18:37:48 31 1003 247 7 NW 0 23.4 805
18:40:48 30 1003 247 5 N 0 24.9 813
18:43:49 29 1004 246 2 S 0 25.7 802
18:46:51 29 1004 246 4 SW 0 26.7 805
18:49:48 30 1003 247 1 N 0 26.4 802
18:52:48 30 1003 246 0 S 0 26.5 813
18:55:46 28 1004 245 1 S 0 26.7 814
18:58:50 27 1003 228 0 S 0 29.3 823
19:01:48 26 1003 232 1 W 0 29.7 822
19:04:52 26 1003 216 0 NW 0 32.7 822
19:07:46 25 1003 216 1 N 0 33 825
19:10:50 24 1004 214 0 NW 0 33.8 826
19:13:48 24 1004 214 0 N 0 34.4 833
19:16:47 24 1004 213 2 W 0 35.8 831
19:19:49 24 1003 213 3 N 0 36.3 838
19:22:49 24 1004 210 8 NW 0 37 836
19:25:48 23 1003 214 2 N 0 37.7 841
19:28:48 23 1003 231 4 N 0 37.7 842
19:31:47 23 1003 215 3 0 38.3 841
19:34:46 23 1003 206 0 N 0 37.9 826
19:37:47 23 1003 205 2 NO 0 39.3 819
19:40:49 23 1003 209 4 N 0 39 820
19:43:51 23 1003 204 3 NW 0 38.4 817
19:46:49 23 1003 202 3 N 0 38.6 822
19:49:50 23 1004 200 2 NW 0 38.8 824
19:52:48 23 1003 199 3 N 0 39.3 824
19:55:50 23 1003 198 4 NW 0 39.2 824
19:58:48 23 1003 196 2 N 0 39.2 825
20:01:50 23 1003 194 2 N 0 39.2 826
20:04:52 23 1003 194 2 NW 0 39.5 826
20:07:50 22 1003 194 0 NO 0 39.6 823
20:10:52 22 1002 194 3 NW 0 39.8 828
20:13:51 22 1004 193 4 NW 0 40 832
20:16:47 22 1003 192 0 N 0 40.5 837
20:19:48 22 1003 190 0 N 0 40.7 834
20:22:51 22 1004 188 0 N 0 40.7 838
20:25:51 22 1004 186 0 NW 0 40.5 845
20:28:50 22 1003 183 0 NW 0 40.5 850
20:31:50 22 1003 183 0 N 0 40.7 853
20:34:47 22 1003 146 0 N 0 41.2 853
20:37:50 22 1003 145 0 N 0 41.6 563
20:40:50 22 1003 179 2 NW 0 41.9 454
20:43:46 22 1003 177 0 N 0 42.3 454
20:46:51 22 1003 174 1 NO 0 43.4 519
20:49:48 21 1003 172 3 NW 0 43.5 544
20:52:46 21 1003 170 1 N 0 43.9 551
20:55:49 21 1002 168 0 N 0 44.4 550
20:58:48 21 1003 166 0 N 0 44.7 550
21:01:48 21 1002 165 0 N 0 44.8 557
21:04:49 21 1003 164 0 N 0 45.3 565
21:07:49 21 1003 162 0 N 0 45.6 592
21:10:50 21 1002 161 0 NW 0 46.3 603
21:13:49 21 1003 158 0 NW 0 46.9 615
21:16:48 20 1003 153 0 NW 0 47.1 623
21:19:51 20 1003 148 0 NW 0 47.2 632
21:22:49 20 1003 142 0 NW 0 47.4 644
21:25:50 20 1003 135 1 NW 0 47.5 653
21:28:49 20 1003 126 1 NW 0 48.7 657
21:31:48 20 1003 118 0 NO 0 50.3 659
21:34:52 20 1002 109 0 NO 0 50.4 671
21:37:48 19 1003 101 0 NO 0 50.7 674
21:40:48 19 1003 91 0 NO 0 51.4 671
21:43:49 19 1003 82 0 NO 0 51.6 674
21:46:48 19 1004 72 0 NO 0 52.3 688
21:49:49 19 1003 62 0 NO 0 54 690
21:52:47 19 1003 51 0 NO 0 54.1 695
21:55:50 19 1003 40 0 NO 0 55.6 692
21:58:49 18 1003 31 0 NO 0 56.1 697
22:01:51 18 1003 24 0 NO 0 57.4 707
22:04:47 18 1003 18 0 N 0 58.1 709
22:07:46 18 1003 13 0 N 0 58.4 713
22:10:48 18 1003 10 0 O 0 59.2 718
22:13:49 17 1003 7 0 SO 0 58.8 702
22:16:49 17 1004 5 0 SO 0 60.2 702
22:19:47 17 1003 3 0 SO 0 60.4 696
22:22:47 17 1003 0 0 NO 0 61.8 697
22:25:47 17 1003 0 0 NO 0 62.5 702
22:28:50 17 1003 0 1 NO 0 64.1 703
22:31:48 17 1004 0 0 NO 0 64.6 705
22:34:46 17 1004 0 0 NO 0 65.1 696
22:37:49 17 1003 0 0 NO 0 65.2 693
22:40:48 16 1004 0 0 NO 0 65.5 688
22:43:47 16 1004 0 0 NO 0 65.7 689
22:46:50 16 1004 0 0 NO 0 65.5 690
22:49:49 16 1003 0 0 NO 0 65.7 688
22:52:48 16 1003 0 0 NO 0 66.5 688
22:55:49 16 1003 0 0 NO 0 66.3 686
22:58:49 16 1003 0 0 NO 0 67 695
23:01:47 16 1003 0 0 NO 0 67 702
23:04:48 16 1003 0 0 NO 0 67.5 706
23:07:47 16 1004 0 0 NO 0 68.4 702
23:10:51 16 1003 0 0 NO 0 67.5 695
23:13:47 16 1004 0 0 NO 0 67.1 700
23:16:49 16 1004 0 0 NO 0 67.3 714
23:19:48 16 1003 0 0 SO 0 67 720
23:22:49 15 1005 0 0 SO 0 67.3 721
23:25:48 15 1003 0 0 SO 0 67.6 722
23:28:49 15 1003 0 0 SO 0 67.2 726
23:31:49 15 1003 0 0 SO 0 67.3 726
23:34:48 15 1003 0 0 SO 0 67.7 729
23:37:46 15 1003 0 0 SO 0 67.9 723
23:40:48 15 1003 0 0 SO 0 69.3 726
23:43:46 15 1004 0 0 SO 0 69.5 732
23:46:47 15 1003 0 0 SO 0 69.3 735
23:49:49 15 1003 0 0 SO 0 69.3 738
23:52:46 15 1004 0 0 0 69.9 732
23:55:47 15 1003 0 0 NO 0 71.3 729
23:58:49 15 1003 0 0 NO 0 72 727

Letzte Änderung : 22-Jul-2022
Copyright Jens Köhler, Wolfsburg, Obere Dorfstraße 10d